HORYU-4

Last updated on Thu Aug 28 2025 00:03:49 GMT+0000 (Coordinated Universal Time)

1 41340U 16012D 25239.50105164 .00030017 00000+0 71971-3 0 9993 2 41340 30.9965 319.9766 0007131 158.8490 201.2452 15.40143210524956
UTC large
Height (km)
Speed (km/s)
/
Latitude / Longitude
Inclination (degrees)
Orbital Period (minutes)
Azimuth
Elevation
Range (km)
Doppler Factor

Next 0 passes for location: London (51.5072 / 0.1276)

Sorry there are no passes over London.